Weather History for Goshen, IN

Change the Weather History Date:

Saturday, September 22, 2012

  Actual Average Record
Temperature  
Mean Temperature 50 °F -  
Max Temperature 57 °F 69 °F 88 °F (1980)
Min Temperature 46 °F 50 °F 33 °F (1999)
Degree Days  
Heating Degree Days 14    
Growing Degree Days 0 (Base 50)    
Moisture  
Dew Point 46 °F    
Average Humidity 89    
Maximum Humidity 100    
Minimum Humidity 69    
Precipitation  
Precipitation 0.00 in - - ()
Sea Level Pressure  
Sea Level Pressure 29.88 in    
Wind  
Wind Speed 6 mph (WSW)    
Max Wind Speed 18 mph    
Max Gust Speed 26 mph    
Visibility 5 miles    
Events Fog , Rain , Thunderstorm    
Averages and records for this station are not official NWS values.
T = Trace of Precipitation, MM = Missing Value Source: NWS Daily Summary

Daily Weather History Graph

Daily Weather History Graph

Search for Another Location

Airport:

Trip Planner

Search our weather history database for the weather conditions in past years. The results will help you decide how hot, cold, wet, or windy it might be!

Date:

Astronomy

Sep. 22, 2012 Rise Set
Actual Time 7:31 AM EDT 7:39 PM EDT
Civil Twilight 7:03 AM EDT 8:07 PM EDT
Nautical Twilight 6:31 AM EDT 8:39 PM EDT
Astronomical Twilight 5:57 AM EDT 9:12 PM EDT
Moon 2:52 PM EDT No Moon Set
Length of Visible Light 13h 03m
Length of Day
12h 08m
Waxing Crescent, 48% of the Moon is Illuminated
Sep 22
Waxing Crescent
Sep 22
First Quarter
Sep 29
Full
Oct 8
Last Quarter
Oct 15
New

Hourly Weather History & Observations

Time (EDT) Temp. Windchill Dew Point Humidity Pressure Visibility Wind Dir Wind Speed Gust Speed Precip Events Conditions
12:53 AM 51.1 °F - 48.9 °F 92% 29.79 in 6.0 mi Calm Calm - N/A   Overcast
1:53 AM 50.0 °F - 48.0 °F 93% 29.77 in 3.0 mi Calm Calm - N/A   Overcast
2:02 AM 48.2 °F - 46.4 °F 93% 29.77 in 1.8 mi SSE 3.5 mph - N/A   Mostly Cloudy
2:14 AM 48.2 °F - 46.4 °F 93% 29.77 in 0.8 mi South 3.5 mph - N/A   Scattered Clouds
2:22 AM 48.2 °F - 46.4 °F 93% 29.77 in 1.0 mi SSE 4.6 mph - N/A   Partly Cloudy
2:26 AM 48.2 °F - 46.4 °F 93% 29.77 in 0.5 mi SSE 5.8 mph - N/A Fog Fog
2:39 AM 48.2 °F - 46.4 °F 93% 29.78 in 1.0 mi Calm Calm - N/A   Mist
2:43 AM 46.4 °F - 46.4 °F 100% 29.78 in 0.5 mi Calm Calm - N/A Fog Fog
2:53 AM 46.0 °F 44.8 °F 45.0 °F 96% 29.78 in 0.2 mi SW 3.5 mph - N/A Fog Fog
3:11 AM 46.4 °F 45.2 °F 46.4 °F 100% 29.78 in 1.0 mi SW 3.5 mph - N/A   Mist
3:23 AM 46.4 °F 45.2 °F 46.4 °F 100% 29.78 in 0.8 mi SSW 3.5 mph - N/A   Mist
3:26 AM 46.4 °F 45.2 °F 44.6 °F 93% 29.78 in 1.2 mi South 3.5 mph - N/A   Scattered Clouds
3:34 AM 46.4 °F 45.2 °F 44.6 °F 93% 29.78 in 1.2 mi SW 3.5 mph - N/A   Mostly Cloudy
3:37 AM 46.4 °F 44.3 °F 44.6 °F 93% 29.78 in 0.8 mi WSW 4.6 mph - N/A   Mist
3:44 AM 48.2 °F - 46.4 °F 93% 29.79 in 0.2 mi WSW 5.8 mph - N/A Fog Fog
3:53 AM 48.0 °F - 46.9 °F 96% 29.79 in 0.2 mi SW 3.5 mph - N/A Fog Fog
4:27 AM 48.2 °F - 46.4 °F 93% 29.79 in 1.0 mi WSW 5.8 mph - N/A   Mist
4:39 AM 48.2 °F - 46.4 °F 93% 29.80 in 2.5 mi SW 8.1 mph - N/A   Mostly Cloudy
4:46 AM 48.2 °F - 46.4 °F 93% 29.81 in 4.0 mi SW 8.1 mph - N/A   Mostly Cloudy
4:53 AM 48.0 °F - 46.9 °F 96% 29.81 in 4.0 mi WSW 8.1 mph - N/A   Mostly Cloudy
5:06 AM 48.2 °F - 46.4 °F 93% 29.81 in 2.0 mi West 5.8 mph - N/A   Mostly Cloudy
5:14 AM 48.2 °F - 46.4 °F 93% 29.82 in 1.2 mi West 5.8 mph - N/A   Mostly Cloudy
5:21 AM 48.2 °F - 46.4 °F 93% 29.81 in 2.0 mi WSW 5.8 mph - N/A   Overcast
5:30 AM 48.2 °F - 46.4 °F 93% 29.81 in 4.0 mi NW 5.8 mph - N/A   Overcast
5:53 AM 48.9 °F - 48.0 °F 97% 29.82 in 5.0 mi WSW 4.6 mph - N/A   Overcast
6:53 AM 48.0 °F - 46.0 °F 93% 29.83 in 5.0 mi SW 8.1 mph - N/A   Partly Cloudy
7:45 AM 48.2 °F - 46.4 °F 93% 29.83 in 3.0 mi SW 8.1 mph - N/A   Scattered Clouds
7:53 AM 48.0 °F - 46.0 °F 93% 29.84 in 2.5 mi SW 9.2 mph - N/A   Mostly Cloudy
8:03 AM 48.2 °F - 46.4 °F 93% 29.84 in 3.0 mi SW 9.2 mph - N/A   Scattered Clouds
9:06 AM 50.0 °F - 48.2 °F 94% 29.85 in 5.0 mi SW 10.4 mph - N/A   Mostly Cloudy
9:53 AM 51.1 °F - 48.0 °F 89% 29.86 in 5.0 mi SW 10.4 mph - N/A Rain Light Rain
10:53 AM 55.0 °F - 48.9 °F 80% 29.83 in 10.0 mi SSW 9.2 mph - N/A   Scattered Clouds
11:53 AM 55.0 °F - 48.9 °F 80% 29.84 in 10.0 mi SW 13.8 mph 20.7 mph N/A Rain Light Rain
12:00 PM 55.4 °F - 48.2 °F 77% 29.83 in 10.0 mi SW 12.7 mph - 0.00 in Thunderstorm Thunderstorm
12:14 PM 53.6 °F - 48.2 °F 82% 29.85 in 5.0 mi West 15.0 mph 21.9 mph 0.00 in Rain Light Rain
12:24 PM 51.8 °F - 46.4 °F 82% 29.85 in 6.0 mi West 12.7 mph - 0.00 in Rain , Thunderstorm Light Rain
12:53 PM 51.1 °F - 46.0 °F 83% 29.88 in 10.0 mi West 13.8 mph 20.7 mph 0.00 in Rain , Thunderstorm Light Rain
1:00 PM 50.0 °F - 46.4 °F 87% 29.88 in 5.0 mi West 11.5 mph 20.7 mph 0.00 in Rain Rain
1:12 PM 50.0 °F - 44.6 °F 82% 29.89 in 3.0 mi West 15.0 mph 26.5 mph N/A Rain , Thunderstorm Thunderstorms and Rain
1:19 PM 48.2 °F - 44.6 °F 87% 29.90 in 2.5 mi WNW 15.0 mph 24.2 mph N/A Rain , Thunderstorm Thunderstorms and Rain
1:27 PM 48.2 °F - 44.6 °F 87% 29.91 in 3.0 mi WNW 15.0 mph 20.7 mph N/A Rain Rain
1:36 PM 48.2 °F - 44.6 °F 87% 29.92 in 5.0 mi WNW 12.7 mph 24.2 mph N/A Rain , Thunderstorm Light Rain
1:51 PM 48.2 °F - 44.6 °F 87% 29.93 in 10.0 mi NW 13.8 mph - N/A   Overcast
1:53 PM 48.9 °F - 44.1 °F 83% 29.94 in 10.0 mi NW 18.4 mph 26.5 mph N/A   Overcast
2:09 PM 48.2 °F - 42.8 °F 82% 29.95 in 10.0 mi North 13.8 mph - N/A   Overcast
2:30 PM 46.4 °F 41.5 °F 42.8 °F 87% 29.96 in 5.0 mi North 10.4 mph - N/A Rain Rain
2:53 PM 46.9 °F - 44.1 °F 90% 30.00 in 2.0 mi North 6.9 mph - N/A Rain Heavy Rain
3:07 PM 46.4 °F 42.9 °F 44.6 °F 93% 30.00 in 6.0 mi NNW 6.9 mph - N/A Rain Light Rain
3:21 PM 46.4 °F 42.9 °F 44.6 °F 93% 30.00 in 4.0 mi West 6.9 mph - N/A Rain Light Rain
3:29 PM 48.2 °F - 44.6 °F 87% 29.99 in 10.0 mi SW 5.8 mph - N/A Rain Light Rain
3:33 PM 48.2 °F - 44.6 °F 87% 30.00 in 10.0 mi WSW 8.1 mph - N/A Rain Light Rain
3:45 PM 48.2 °F - 44.6 °F 87% 30.00 in 10.0 mi WSW 10.4 mph - N/A   Mostly Cloudy
4:53 PM 53.1 °F - 44.1 °F 71% 30.04 in 10.0 mi West 8.1 mph - N/A   Partly Cloudy
5:53 PM 54.0 °F - 44.1 °F 69% 30.05 in 10.0 mi West 10.4 mph - N/A   Clear
6:53 PM 53.1 °F - 44.1 °F 71% 30.07 in 10.0 mi West 8.1 mph - N/A   Scattered Clouds
7:53 PM 50.0 °F - 45.0 °F 83% 30.09 in 10.0 mi WSW 8.1 mph - N/A   Partly Cloudy
8:53 PM 48.0 °F - 44.1 °F 86% 30.11 in 10.0 mi WSW 6.9 mph - N/A   Partly Cloudy
9:53 PM 48.0 °F - 44.1 °F 86% 30.12 in 10.0 mi WSW 6.9 mph - N/A   Clear
11:53 PM 48.0 °F - 43.0 °F 83% 30.14 in 10.0 mi NW 5.8 mph - N/A   Mostly Cloudy